[Show "Revision History"] [Show "General Page Infos"] [Show "Page hits and edits"]

Revision History

Showing page edit history entries from 1 to 85 out of 85 entries total. (5 | 10 | 25 | 50 | 100 | 200 items per page)

# Date Size Editor Comment Action
85 2012-02-12 19:06:20 37186 to previous JulienVermillard   view
84 2012-02-10 17:09:07 37174 to previous DennisLundberg Signed off NPanday report view
83 2012-02-10 11:31:44 37158 to previous JukkaZitting Reflow the NPanday report view
82 2012-02-10 06:10:37 37147 to previous BrettPorter   view
81 2012-02-09 14:23:34 36252 to previous JukkaZitting   view
80 2012-02-09 14:22:00 36288 to previous JukkaZitting typo view
79 2012-02-09 14:01:39 36287 to previous JukkaZitting Add a report summary based on the discussion on general@ view
78 2012-02-09 13:34:57 35252 to previous JukkaZitting Use unified formatting also for the Zeta Components report view
77 2012-02-09 11:59:20 35237 to previous DerickRethans   view
76 2012-02-08 18:18:03 34680 to previous JimJagielski   view
75 2012-02-08 18:17:19 34675 to previous JimJagielski   view
74 2012-02-08 18:00:30 34670 to previous JukkaZitting Add "incubating since" for OpenNLP. view
73 2012-02-08 16:43:45 34637 to previous JukkaZitting Add basic info for Stanbol view
72 2012-02-08 16:35:03 34479 to previous JukkaZitting Reflow the OpenNLP report view
71 2012-02-07 09:47:24 34473 to previous yegor   view
70 2012-02-07 09:25:35 34467 to previous ThorstenScherler   view
69 2012-02-06 23:28:48 34457 to previous joern   view
68 2012-02-06 23:28:01 34455 to previous joern   view
67 2012-02-06 23:27:05 34466 to previous joern   view
66 2012-02-06 20:23:58 33743 to previous struberg   view
65 2012-02-06 02:49:58 33632 to previous AlanCabrera   view
64 2012-02-05 09:21:22 33627 to previous JukkaZitting Note the vote to retire HISE view
63 2012-02-05 09:19:26 33603 to previous JukkaZitting Reflow. Consistent formatting. view
62 2012-02-03 00:47:11 32920 to previous OwenOmalley   view
61 2012-02-02 15:29:06 32404 to previous JoeSchaefer sign off on sis report view
60 2012-02-02 15:24:18 32398 to previous TommasoTeofili   view
59 2012-02-02 15:21:58 32389 to previous TommasoTeofili   view
58 2012-02-02 01:12:03 31210 to previous KevanMiller   view
57 2012-02-02 00:45:36 31204 to previous lresende   view
56 2012-02-01 20:54:44 31182 to previous RichardFrovarp Add Droids report view
55 2012-02-01 20:48:51 30427 to previous David Fisher   view
54 2012-02-01 20:03:39 30421 to previous HyrumWright Sign off on Bloodhound report view
53 2012-02-01 19:49:24 30412 to previous GerhardPetracek   view
52 2012-02-01 18:34:52 29110 to previous GregStein   view
51 2012-02-01 17:11:08 29103 to previous HyrumWright Expand Bloodhound section on infrastructure view
50 2012-02-01 17:00:58 28988 to previous GaryMartin discussion of bloodhound infrastructure setup view
49 2012-02-01 16:47:44 28669 to previous KevanMiller   view
48 2012-02-01 16:35:32 28663 to previous AndrewSavory   view
47 2012-02-01 15:59:59 28654 to previous HyrumWright Spelling view
46 2012-02-01 15:58:51 28654 to previous HyrumWright Add Bloodhound report view
45 2012-02-01 12:25:05 27327 to previous TimWilliams DirectMemory is no longer in monthly mode and Feb isn't a reporting month view
44 2012-02-01 10:58:56 27417 to previous RossGardler sign off clerreza view
43 2012-02-01 09:41:18 27407 to previous BertrandDelacretaz sign off view
42 2012-02-01 09:36:08 27358 to previous Rwesten   view
41 2012-02-01 09:34:53 27385 to previous Rwesten   view
40 2012-02-01 09:11:08 25993 to previous DanielSpicar   view
39 2012-02-01 05:24:55 25732 to previous lresende   view
38 2012-02-01 05:00:24 25546 to previous lresende   view
37 2012-02-01 04:46:27 25076 to previous StefanBodewig sign off Lucene.Net report view
36 2012-02-01 00:21:15 25068 to previous RossGardler sign off cordova view
35 2012-02-01 00:03:58 25058 to previous JukkaZitting Add Cordova report. Was originally added to February2011 by mistake. view
34 2012-01-31 23:35:36 23878 to previous AlexHarui   view
33 2012-01-31 23:11:08 21712 to previous antelder   view
32 2012-01-31 23:06:17 21794 to previous lresende   view
31 2012-01-31 23:05:43 21810 to previous lresende   view
30 2012-01-31 19:18:45 20702 to previous aaronpeeler   view
29 2012-01-31 19:04:16 19588 to previous lresende   view
28 2012-01-31 18:29:28 18473 to previous PrescottNasser Adding Lucene.Net to the report view
27 2012-01-31 17:28:20 16927 to previous DanielSpicar improved clerezza entry view
26 2012-01-31 16:17:41 16796 to previous DanielSpicar improved CLerezza entry view
25 2012-01-31 15:54:47 16715 to previous AteDouma   view
24 2012-01-31 15:46:32 16710 to previous KevanMiller   view
23 2012-01-31 14:45:55 16696 to previous RossGardler Sign off Wookie view
22 2012-01-31 14:44:07 16687 to previous SebastianWagner fix typo view
21 2012-01-31 14:26:01 16689 to previous SebastianWagner   view
20 2012-01-31 14:25:24 16675 to previous SebastianWagner   view
19 2012-01-31 14:21:53 16673 to previous SebastianWagner   view
18 2012-01-31 14:05:20 14707 to previous ScottWilson Added Wookie report view
17 2012-01-31 13:58:51 11971 to previous AlexeiFedotov   view
16 2012-01-31 13:57:28 11159 to previous BertrandDelacretaz   view
15 2012-01-31 13:29:15 10796 to previous DanielSpicar   view
14 2012-01-31 13:27:04 10826 to previous DanielSpicar   view
13 2012-01-31 10:00:40 9702 to previous RossGardler Minor tweaks and sign off Airavata view
12 2012-01-31 08:23:41 9720 to previous AteDouma   view
11 2012-01-31 06:05:20 9715 to previous GregReddin Approve SIS report. view
10 2012-01-31 05:44:27 9706 to previous ChrisMattmann Add stub any23 report. view
9 2012-01-31 05:38:52 8024 to previous ChrisMattmann Added SIS report. view
8 2012-01-31 05:29:35 6193 to previous ChrisMattmann stub Airavata report. view
7 2012-01-31 01:04:53 4340 to previous DavidCrossley start the next template view
6 2012-01-22 17:19:21 2461 to previous AndySeaborne Jena - note how much was released. view
5 2012-01-22 16:32:43 2411 to previous AndySeaborne Jena - revise content from -dev mailing list discussion. view
4 2012-01-22 10:57:37 2182 to previous AndySeaborne Wrong word. view
3 2012-01-21 20:26:25 2180 to previous BensonMargulies   view
2 2012-01-21 17:44:51 2137 to previous AndySeaborne   view
1 2012-01-01 23:21:25 1184 DavidCrossley save the template view